FW2094 Weather Reports


time (UTC)temp
F
wind
direction
speed
knots
gust
knots
rain 1hr
in
rain 24hr
in
rain mn
in
humidity
%
barometer
mb
20260507221542 52 116 0.0 0.0 0.00 0.00 0.00 86 1013.2
20260507220041 52 116 0.0 0.0 0.00 0.00 0.00 86 1013.2
20260507214546 53 116 0.0 0.0 0.00 0.00 0.00 85 1013.2
20260507213041 53 116 0.0 0.0 0.00 0.00 0.00 84 1013.0
20260507211543 54 116 0.0 0.0 0.00 0.00 0.00 82 1013.0
20260507210039 55 116 0.0 0.0 0.00 0.00 0.00 81 1013.0
20260507204539 57 178 0.0 0.0 0.00 0.00 0.00 79 1013.0
20260507203039 57 178 0.0 0.9 0.00 0.00 0.00 78 1013.2
20260507201542 56 178 0.0 2.6 0.00 0.00 0.00 80 1013.1
20260507200038 55 60 0.0 0.0 0.00 0.00 0.00 85 1013.0
20260507194538 55 55 0.0 0.0 0.00 0.00 0.00 84 1013.0
20260507193038 56 53 0.0 0.0 0.00 0.00 0.00 82 1012.9
20260507191536 56 53 0.0 1.7 0.00 0.00 0.00 81 1012.7
20260507190036 58 53 0.9 1.7 0.00 0.00 0.00 80 1012.5
20260507184535 58 49 0.0 1.7 0.00 0.00 0.00 78 1012.4
20260507183044 60 87 0.0 0.0 0.00 0.00 0.00 75 1012.1
20260507181539 63 86 0.0 0.0 0.00 0.00 0.00 73 1012.1
20260507180035 65 84 0.0 1.7 0.00 0.00 0.00 74 1011.9
20260507174533 67 95 0.0 0.0 0.00 0.00 0.00 71 1011.6
20260507173035 69 92 0.0 2.6 0.00 0.00 0.00 66 1011.5
20260507171532 70 119 0.0 0.0 0.00 0.00 0.00 66 1011.4
20260507170031 70 119 0.0 0.0 0.00 0.00 0.00 65 1011.4
20260507164536 70 216 0.0 2.6 0.00 0.00 0.00 66 1011.4
20260507163037 70 134 0.0 1.7 0.00 0.00 0.00 66 1011.4
20260507161539 68 360 0.0 0.0 0.00 0.00 0.00 70 1011.5
20260507160042 68 360 0.0 0.9 0.00 0.00 0.00 70 1011.5
20260507154531 71 360 0.9 3.5 0.00 0.00 0.00 64 1011.4
20260507153030 70 78 0.0 5.2 0.00 0.00 0.00 69 1011.6
20260507151526 69 360 0.0 4.3 0.00 0.00 0.00 65 1011.7
20260507150028 69 360 0.0 1.7 0.00 0.00 0.00 66 1011.7
20260507144533 70 360 0.0 4.3 0.00 0.00 0.00 63 1011.9
20260507143025 69 360 1.7 3.5 0.00 0.00 0.00 67 1011.7
20260507141524 68 360 0.0 2.6 0.00 0.00 0.00 64 1011.8
20260507140023 68 104 0.0 2.6 0.00 0.00 0.00 63 1011.8
20260507134523 69 75 0.0 3.5 0.00 0.00 0.00 58 1012.0
20260507133023 70 49 0.9 6.1 0.00 0.00 0.00 60 1011.9
20260507131522 68 71 0.9 3.5 0.00 0.00 0.00 63 1012.0
20260507130026 67 30 0.0 2.6 0.00 0.00 0.00 62 1012.0
20260507124536 67 62 0.9 2.6 0.00 0.02 0.00 59 1012.0
20260507123022 70 61 1.7 6.1 0.00 0.02 0.00 53 1012.1
20260507121520 70 21 0.9 4.3 0.00 0.02 0.00 58 1012.1
20260507120019 69 27 0.9 7.0 0.00 0.02 0.00 58 1012.2
20260507114518 70 123 0.9 4.3 0.00 0.15 0.00 61 1012.3
20260507113019 69 105 0.9 3.5 0.00 0.15 0.00 56 1012.4
20260507111517 68 31 0.0 4.3 0.00 0.15 0.00 58 1012.6
20260507110113 68 215 1.7 3.5 0.00 0.15 0.00 53 1012.7
20260507104611 69 294 0.0 4.3 0.00 0.15 0.00 58 1012.9
20260507103006 68 108 0.0 3.5 0.00 0.15 0.00 59 1013.0
20260507101502 66 90 1.7 5.2 0.00 0.15 0.00 57 1013.2
20260507100003 66 282 0.9 5.2 0.00 0.15 0.00 61 1013.2
20260507094558 67 277 0.9 3.5 0.00 0.15 0.00 67 1013.2
20260507093055 66 227 0.0 5.2 0.00 0.15 0.00 63 1013.2
20260507091550 66 360 0.0 2.6 0.00 0.15 0.00 59 1013.1
20260507090047 66 298 0.9 3.5 0.00 0.15 0.00 62 1013.1
20260507084544 66 275 0.9 2.6 0.00 0.17 0.00 64 1013.0
20260507083039 64 345 1.7 4.3 0.00 0.17 0.00 63 1012.9
20260507081535 64 350 0.0 3.5 0.00 0.17 0.00 62 1012.9
20260507080031 63 360 0.0 1.7 0.00 0.17 0.00 65 1012.8
20260507074528 60 360 0.0 0.0 0.00 0.30 0.00 68 1012.8
20260507073022 59 163 0.0 0.0 0.00 0.30 0.00 68 1012.7
20260507071519 58 169 0.0 1.7 0.00 0.30 0.00 72 1012.6
20260507070015 57 169 0.0 1.7 0.00 0.30 0.00 74 1012.5
20260506234502 53 97 0.9 3.5 0.00 1.60 0.00 81 1010.8
20260506233112 53 126 0.0 1.7 0.00 1.60 0.00 80 1010.7
20260506231613 54 126 0.9 2.6 0.00 1.60 0.00 78 1010.8
20260506230104 53 82 0.9 2.6 0.00 1.60 0.00 80 1011.0
20260506224555 54 81 0.9 2.6 0.00 1.60 0.00 80 1011.0
20260506223052 54 82 0.9 2.6 0.00 1.60 0.00 79 1011.0